Simultaneous Nadir Overpasses (SNOs) Predictions

Prediction of SNOs between NPP and TERRA Satellite Orbit:

Table of predicted SNOs for the next 14.0 days since TLE Epoch: 11/10/2012
Index Date (NPP) Time (NPP) Lat,Lon (NPP) SZA (NPP ) Date (TERRA) Time (TERRA) Lat,Lon (TERRA) SZA (TERRA ) Distance(km) Time Diff (sec)
1 11/12/2012 20:01:45 68.17,-122.08 86.03 11/12/2012 20:02:18 68.16,-122.13 86.03 2.12 33
2 11/12/2012 20:52:27 -68.07, 45.36 94.06 11/12/2012 20:51:48 -68.05, 45.37 94.09 2.18 39
3 11/15/2012 11:28:04 -68.67,-174.27 92.80 11/15/2012 11:29:15 -68.58,-173.39 92.87 37.01 71
4 11/15/2012 12:18:40 68.12, -6.26 86.68 11/15/2012 12:18:48 68.14, -6.28 86.70 2.10 8
5 11/15/2012 13:09:22 -68.03, 161.18 93.41 11/15/2012 13:08:18 -68.03, 161.23 93.41 2.32 64
6 11/18/2012 03:44:50 -68.20, -57.90 92.60 11/18/2012 03:45:51 -68.22, -57.96 92.59 2.62 61
7 11/18/2012 04:35:34 68.09, 109.55 87.30 11/18/2012 04:35:18 68.10, 109.56 87.31 1.38 16
8 11/18/2012 05:26:07 -67.51, -82.42 93.27 11/18/2012 05:24:56 -67.55, -83.45 93.25 43.99 71
9 11/20/2012 20:01:45 -68.18, 57.90 92.02 11/20/2012 20:02:23 -68.16, 57.85 92.04 2.83 38
10 11/20/2012 20:52:29 68.07,-134.66 87.89 11/20/2012 20:51:50 68.05,-134.64 87.86 2.66 39
11 11/23/2012 11:28:08 68.80, 5.53 89.17 11/23/2012 11:29:17 68.69, 6.73 89.06 49.89 69
12 11/23/2012 12:18:40 -68.16, 173.69 91.47 11/23/2012 12:18:55 -68.14, 173.70 91.49 2.67 15
13 11/23/2012 13:09:23 68.00, -18.80
